Location: San Martino di Castrozza
(46.2667°N, 11.8000°E)
Time: 15:18:13
(UTC+00:00)

NOSS 3-3 (A) - Pass Details

Date: 23 April 2021
Orbit: 805 x 1407 km, 63.4° (Epoch: 09 May)

Event Time Altitude Azimuth Distance (km) Brightness Sun altitude
Exits shadow 00:34:58 84° 175° (S) 934 3.7 -28.2°
Maximum altitude 00:35:07 86° 128° (SE) 934 3.7 -28.2°
Drops below altitude 10° 00:41:43 10° 40° (NE) 2,839 7.3 -27.8°
Sets 00:44:32 0° 40° (NE) 3,890 8.3 -27.6°
